sat.trackr.live / text

‹ back to catalog

GNOMES-1

NORAD 46266 · 2020-059B

PAYLOAD ACTIVE UNKNOWN

§ Identity

Operator
Country
US
Launch date
2020-08-30
Launch site
AFETR
Launch vehicle
Mass (kg)
RCS (m²)

External: N2YO · Heavens-Above · Gunter

§ Orbital elements

Epoch: 2026-09-19T19:37:30.864576Z

Period
95.95 min
Inclination
97.7968°
Eccentricity
0.0011924
Mean motion
15.00782579 rev/d
Perigee alt
556.2 km
Apogee alt
572.8 km
Semi-major
6,942.6 km
B*
1.2612e-4
RAAN
113.4294°
Arg perigee
68.9358°
Mean anomaly
291.3139°
Rev number
32,978

§ Raw data

GNOMES-11 46266U 20059B   26262.81771834  .00001541  00000+0  12612-3 0  99922 46266  97.7968 113.4294 0011924  68.9358 291.3139 15.00782579329783

JSON: /api/v1/satellites/46266 · /tle

For live sub-satellite position, see the globe view (requires WebGL).

§ Visibility from observer

Set your observer location to see the next 7 days of passes ≥ 10°. The values pass through the URL so the page stays shareable.

No JS? Fill the form by hand. The geolocation button needs JavaScript.